Location: Newark
(48.9233°N, 29.3439°E)
Time: 01:50:25
(UTC+00:00)

Envisat - Pass Details

Date: 22 September 2019
Orbit: 764 x 766 km, 98.1° (Epoch: 16 October)

Event Time Altitude Azimuth Distance (km) Brightness Sun altitude
Rises 16:29:00 0° 179° (S) 3,220 6.1 -5.3°
Reaches altitude 10° 16:31:22 10° 184° (S) 2,299 5.5 -5.7°
Maximum altitude 16:36:18 52° 260° (W) 952 4.0 -6.5°
Drops below altitude 10° 16:41:17 10° 337° (NNW) 2,315 6.0 -7.3°
Sets 16:43:40 0° 343° (NNW) 3,245 6.6 -7.7°
